TimeCST,TemperatureF,Dew PointF,Humidity,Sea Level PressureIn,VisibilityMPH,Wind Direction,Wind SpeedMPH,Gust SpeedMPH,PrecipitationIn,Events,Conditions,WindDirDegrees,DateUTC
12:53 AM,46.9,34.0,61,30.28,10.0,South,4.6,-,N/A,,Clear,170,2012-11-19 06:53:00
1:53 AM,46.9,34.0,61,30.28,10.0,SSE,3.5,-,N/A,,Clear,160,2012-11-19 07:53:00
2:53 AM,46.9,34.0,61,30.27,10.0,Calm,Calm,-,N/A,,Clear,0,2012-11-19 08:53:00
3:53 AM,46.9,35.1,63,30.27,10.0,Calm,Calm,-,N/A,,Scattered Clouds,0,2012-11-19 09:53:00
4:53 AM,48.0,35.1,61,30.28,10.0,South,3.5,-,N/A,,Overcast,170,2012-11-19 10:53:00
5:53 AM,46.9,36.0,66,30.27,10.0,Calm,Calm,-,N/A,,Overcast,0,2012-11-19 11:53:00
6:53 AM,46.0,35.1,66,30.28,10.0,Calm,Calm,-,N/A,,Mostly Cloudy,0,2012-11-19 12:53:00
7:53 AM,46.9,35.1,63,30.29,10.0,South,3.5,-,0.00,Rain,Light Rain,170,2012-11-19 13:53:00
8:53 AM,46.0,39.9,79,30.30,8.0,South,3.5,-,0.03,Rain,Light Rain,190,2012-11-19 14:53:00
9:53 AM,48.0,39.9,74,30.29,9.0,South,3.5,-,0.00,,Overcast,180,2012-11-19 15:53:00
10:48 AM,51.8,39.2,62,30.28,10.0,SSW,3.5,-,N/A,,Overcast,200,2012-11-19 16:48:00
10:53 AM,51.1,39.9,66,30.28,10.0,South,4.6,-,N/A,,Overcast,180,2012-11-19 16:53:00
11:53 AM,51.1,39.9,66,30.26,10.0,South,5.8,-,0.00,,Overcast,180,2012-11-19 17:53:00
12:53 PM,48.0,44.1,86,30.24,2.0,SSW,8.1,-,0.00,Rain,Light Rain,200,2012-11-19 18:53:00
1:14 PM,48.2,44.6,87,30.22,4.0,South,8.1,-,0.00,,Overcast,170,2012-11-19 19:14:00
1:51 PM,48.2,44.6,87,30.21,9.0,South,4.6,-,0.00,,Overcast,180,2012-11-19 19:51:00
1:53 PM,48.9,45.0,86,30.22,9.0,South,4.6,-,0.00,,Overcast,190,2012-11-19 19:53:00
2:20 PM,50.0,44.6,82,30.21,10.0,SSW,5.8,-,N/A,,Overcast,200,2012-11-19 20:20:00
2:34 PM,50.0,44.6,82,30.21,10.0,South,5.8,-,N/A,,Overcast,170,2012-11-19 20:34:00
2:53 PM,50.0,45.0,83,30.20,10.0,South,6.9,-,N/A,,Overcast,180,2012-11-19 20:53:00
3:01 PM,50.0,44.6,82,30.20,10.0,South,5.8,-,N/A,,Overcast,170,2012-11-19 21:01:00
3:30 PM,48.2,44.6,87,30.20,8.0,South,8.1,-,N/A,,Overcast,180,2012-11-19 21:30:00
3:40 PM,48.2,44.6,87,30.20,9.0,South,9.2,-,N/A,,Overcast,180,2012-11-19 21:40:00
3:53 PM,48.9,45.0,86,30.20,10.0,South,5.8,-,N/A,,Overcast,190,2012-11-19 21:53:00
4:01 PM,48.2,44.6,87,30.19,10.0,South,8.1,-,N/A,,Overcast,180,2012-11-19 22:01:00
4:23 PM,48.2,44.6,87,30.18,9.0,South,8.1,-,N/A,,Overcast,180,2012-11-19 22:23:00
4:53 PM,48.9,45.0,86,30.18,9.0,South,5.8,-,N/A,,Overcast,170,2012-11-19 22:53:00
5:53 PM,50.0,45.0,83,30.19,10.0,South,3.5,-,N/A,,Overcast,190,2012-11-19 23:53:00
6:53 PM,51.1,43.0,74,30.19,10.0,South,3.5,-,N/A,,Overcast,190,2012-11-20 00:53:00
7:53 PM,48.0,42.1,80,30.19,10.0,South,3.5,-,N/A,,Partly Cloudy,180,2012-11-20 01:53:00
8:53 PM,45.0,39.9,82,30.18,10.0,SSW,3.5,-,N/A,,Scattered Clouds,200,2012-11-20 02:53:00
9:53 PM,45.0,39.9,82,30.18,10.0,Calm,Calm,-,N/A,,Partly Cloudy,0,2012-11-20 03:53:00
10:53 PM,45.0,39.9,82,30.16,10.0,SSW,5.8,-,N/A,,Clear,210,2012-11-20 04:53:00
11:53 PM,44.1,39.9,85,30.17,10.0,WSW,3.5,-,N/A,,Clear,240,2012-11-20 05:53:00